{"data":{"norad_id":51965,"intl_designator":"2022-025K","name":"STARLINK-3696","alt_names":[],"object_type":"PAYLOAD","status":"ACTIVE","operator":null,"country":"US","launch_date":"2022-03-09","launch_site_code":"AFETR","launch_vehicle":null,"mission":null,"orbit_class":"UNKNOWN","rcs_meters":null,"size_class":null,"mass_kg":null,"dimensions":null,"purposes":["comms"],"wikipedia_slug":null,"has_3d_model":false,"image_url":null,"decayed_at":null,"tle_current":{"epoch":"2026-05-25T02:39:15.812352Z","epoch_age_seconds":62593,"freshness":"FRESH","line1":"1 51965U 22025K   26145.11059968 -.00001041  00000+0 -21770-4 0  9992","line2":"2 51965  53.1637  41.7916 0001656 104.5163 255.6023 15.31686851232531","mean_motion":15.31686851,"eccentricity":0.0001656,"inclination_deg":53.1637,"raan_deg":41.7916,"arg_perigee_deg":104.5163,"mean_anomaly_deg":255.6023,"bstar":-2.177e-5,"rev_number":23253,"period_min":94.013995031678,"perigee_km":469.64501146944,"apogee_km":471.91337251223,"semimajor_km":6848.9161919908,"source":"CELESTRAK","updated_at":"2026-05-25T13:38:16.992483Z"}}}